Terminal Aerodrome Forecast
Issued by NWS Jackson, MS

Home | Current Version | Previous Version | Text Only | Print | Product List | Glossary On
Versions: 1 2 3 4 5 6 7 8 9 10 11 12 13 14 15 16
000
FTUS44 KJAN 010500
TAFMEI
TAF
KMEI 010520Z 0106/0206 00000KT P6SM SKC
     FM011000 VRB03KT 4SM BR SCT100
     FM011400 06005KT P6SM SCT060=

USA.gov is the U.S. government's official web portal to all federal, state and local government web resources and services.